{"data":{"norad_id":54780,"epoch":"2026-05-25T03:34:57.362592Z","epoch_age_seconds":72582,"freshness":"FRESH","line1":"1 54780U 22175Y   26145.14927503  .00000720  00000+0  63348-4 0  9996","line2":"2 54780  53.2134  45.7809 0001418  82.2905 277.8248 15.08836965191670","mean_motion":15.08836965,"eccentricity":0.0001418,"inclination_deg":53.2134,"raan_deg":45.7809,"arg_perigee_deg":82.2905,"mean_anomaly_deg":277.8248,"bstar":6.3348e-5,"rev_number":19167,"period_min":95.437746648791,"perigee_km":538.77170900588,"apogee_km":540.73362251509,"semimajor_km":6917.8896657605,"source":"CELESTRAK","updated_at":"2026-05-25T13:38:17.692612Z"}}